User: anonymous
Location: Unspecified
(0.0000°N, 0.0000°E)
Time: 07:05:22
(UTC+00:00)
Language:

APRIZESAT 3 - Orbit

View from above orbital plane
View from above orbital plane
View from above satellite
View from above satellite

Ground track
Ground track

The orbit data is extracted from the following two-line orbital elements,

1 35686U 09041F   14237.81424038  .00000792  00000-0  94253-4 0  6047
2 35686 098.1538 185.8799 0077185 109.9569 310.0020 14.85309274274718
Epoch (UTC): 25 August 2014 19:32:30
Eccentricity: 0.0077185
inclination: 98.1538°
perigee height: 558 km
apogee height: 666 km
right ascension of ascending node: 185.8799°
argument of perigee: 109.9569°
revolutions per day: 14.85309274
mean anomaly at epoch: 310.0020°
orbit number at epoch: 27471

The dashed part of the orbit path shows where the satellite is in the earth's shadow,  

DLR